Precipitable_Water
1.73 1.65 1.60 1.55 1.48 1.42 1.41 1.40 1.37 1.37 1.35 1.33 1.27 1.24 1.24 1.24 1.26 1.29 1.35 1.35 1.36 1.35 1.36 1.40 1.45 1.46 1.45 1.46 1.44 1.42 1.40 1.39 1.43 1.43 1.43 1.42 1.43 1.40 1.39 1.39 1.37 1.39 1.41 1.43 1.52 1.54 1.54 1.51 1.50 1.52 1.59 1.56 1.58 1.58 1.52 1.48 1.45 1.43 1.43 1.41 1.37 1.44 1.46 1.42 1.33 1.36 1.54 1.72 1.66 1.64 1.73 1.73 1.65 1.71 1.66 1.70 1.75 1.84 1.89 1.90 1.93 1.93 1.95 1.95 1.92
1.81 1.72 1.66 1.58 1.51 1.45 1.44 1.49 1.50 1.49 1.46 1.47 1.43 1.35 1.31 1.32 1.32 1.32 1.30 1.36 1.39 1.35 1.32 1.34 1.38 1.41 1.42 1.43 1.45 1.46 1.45 1.45 1.44 1.43 1.39 1.38 1.38 1.42 1.39 1.37 1.36 1.36 1.41 1.42 1.50 1.58 1.58 1.52 1.51 1.56 1.61 1.57 1.57 1.54 1.51 1.46 1.48 1.47 1.46 1.43 1.43 1.51 1.66 1.51 1.43 1.37 1.32 1.51 1.55 1.69 1.70 1.80 1.63 1.80 1.70 1.65 1.65 1.72 1.73 1.82 1.89 1.92 1.93 1.95 1.92
1.94 1.85 1.74 1.66 1.60 1.57 1.51 1.49 1.52 1.55 1.55 1.54 1.52 1.49 1.45 1.43 1.42 1.35 1.32 1.34 1.39 1.39 1.37 1.35 1.33 1.32 1.32 1.33 1.35 1.38 1.42 1.46 1.50 1.46 1.42 1.39 1.39 1.42 1.43 1.39 1.35 1.35 1.39 1.44 1.49 1.53 1.51 1.50 1.50 1.54 1.56 1.48 1.47 1.48 1.50 1.51 1.55 1.52 1.51 1.54 1.51 1.56 1.61 1.61 1.48 1.36 1.35 1.42 1.60 1.60 1.66 1.73 1.68 1.68 1.73 1.74 1.77 1.80 1.75 1.77 1.80 1.86 1.90 1.91 1.87
2.09 1.94 1.87 1.82 1.80 1.73 1.61 1.56 1.56 1.59 1.57 1.57 1.54 1.56 1.56 1.54 1.55 1.51 1.46 1.44 1.41 1.43 1.43 1.41 1.38 1.36 1.34 1.30 1.30 1.31 1.36 1.40 1.43 1.45 1.45 1.43 1.44 1.45 1.48 1.46 1.43 1.41 1.43 1.48 1.52 1.55 1.56 1.57 1.59 1.63 1.66 1.61 1.61 1.62 1.65 1.66 1.64 1.63 1.61 1.62 1.60 1.58 1.63 1.65 1.64 1.55 1.55 1.47 1.60 1.63 1.71 1.65 1.67 1.69 1.69 1.72 1.74 1.76 1.78 1.81 1.85 1.82 1.82 1.83 1.81
1.96 1.97 1.95 1.96 1.94 1.86 1.76 1.71 1.65 1.62 1.62 1.64 1.63 1.63 1.65 1.65 1.64 1.63 1.62 1.59 1.58 1.57 1.58 1.59 1.54 1.49 1.42 1.40 1.43 1.44 1.43 1.43 1.43 1.47 1.51 1.51 1.48 1.47 1.48 1.48 1.47 1.47 1.48 1.49 1.52 1.54 1.53 1.48 1.49 1.55 1.59 1.55 1.58 1.59 1.64 1.63 1.67 1.65 1.62 1.66 1.67 1.70 1.71 1.73 1.73 1.74 1.63 1.53 1.56 1.68 1.74 1.72 1.73 1.69 1.68 1.57 1.59 1.67 1.74 1.70 1.72 1.71 1.71 1.73 1.75
1.91 1.96 1.98 1.97 1.98 1.94 1.89 1.83 1.77 1.74 1.75 1.77 1.78 1.77 1.75 1.75 1.77 1.77 1.78 1.76 1.74 1.70 1.65 1.65 1.62 1.59 1.57 1.55 1.54 1.53 1.55 1.58 1.58 1.57 1.59 1.58 1.55 1.55 1.52 1.50 1.49 1.49 1.50 1.50 1.53 1.53 1.50 1.54 1.71 1.77 1.72 1.68 1.63 1.65 1.66 1.64 1.66 1.63 1.62 1.63 1.65 1.68 1.67 1.71 1.75 1.72 1.67 1.63 1.62 1.60 1.68 1.63 1.62 1.61 1.62 1.62 1.54 1.49 1.55 1.64 1.69 1.69 1.64 1.60 1.68
1.88 1.90 2.04 2.00 1.94 1.96 1.94 1.90 1.86 1.84 1.84 1.85 1.87 1.85 1.82 1.81 1.80 1.78 1.82 1.82 1.82 1.82 1.82 1.79 1.79 1.75 1.74 1.73 1.70 1.68 1.65 1.64 1.63 1.63 1.59 1.62 1.69 1.61 1.57 1.55 1.53 1.53 1.51 1.52 1.55 1.56 1.59 1.67 1.73 1.79 1.78 1.76 1.75 1.72 1.69 1.68 1.70 1.69 1.71 1.68 1.69 1.69 1.69 1.70 1.72 1.69 1.66 1.62 1.64 1.63 1.57 1.61 1.58 1.43 1.54 1.63 1.62 1.59 1.48 1.47 1.50 1.66 1.69 1.65 1.62
1.92 1.86 1.92 2.07 1.92 1.93 1.95 1.98 1.97 1.94 1.90 1.89 1.89 1.88 1.87 1.86 1.84 1.83 1.82 1.82 1.83 1.82 1.82 1.83 1.86 1.87 1.84 1.84 1.86 1.87 1.85 1.86 1.84 1.81 1.78 1.73 1.64 1.65 1.69 1.60 1.57 1.58 1.58 1.58 1.59 1.60 1.62 1.67 1.75 1.86 1.89 1.89 1.94 1.90 1.88 1.83 1.82 1.75 1.75 1.74 1.75 1.74 1.71 1.73 1.72 1.70 1.66 1.63 1.60 1.59 1.65 1.61 1.57 1.56 1.57 1.54 1.46 1.50 1.60 1.56 1.45 1.51 1.60 1.68 1.70
1.95 1.91 1.97 2.04 2.01 1.96 1.98 2.01 2.03 2.00 1.95 1.90 1.86 1.83 1.85 1.86 1.88 1.90 1.92 1.93 1.93 1.92 1.89 1.86 1.82 1.82 1.84 1.83 1.85 1.90 1.90 1.89 1.89 1.88 1.86 1.81 1.80 1.75 1.90 1.84 1.67 1.59 1.61 1.64 1.66 1.67 1.67 1.69 1.78 1.90 1.97 1.96 1.88 1.75 1.76 1.85 1.81 1.68 1.71 1.75 1.75 1.75 1.73 1.73 1.71 1.70 1.70 1.67 1.62 1.65 1.61 1.57 1.55 1.50 1.47 1.43 1.36 1.34 1.51 1.58 1.52 1.59 1.64 1.62 1.70
1.99 1.95 1.93 1.99 2.05 2.05 1.99 2.02 2.08 2.10 2.04 1.98 1.93 1.88 1.83 1.83 1.86 1.90 1.95 1.98 1.98 1.97 1.93 1.90 1.86 1.82 1.79 1.79 1.79 1.81 1.84 1.89 1.93 1.99 1.98 1.90 1.80 1.78 1.80 1.84 1.85 1.79 1.71 1.68 1.69 1.72 1.73 1.74 1.79 1.86 1.89 1.90 1.91 1.94 1.98 1.98 1.89 1.78 1.75 1.74 1.72 1.72 1.72 1.71 1.69 1.68 1.64 1.57 1.55 1.56 1.53 1.51 1.55 1.59 1.55 1.58 1.66 1.69 1.63 1.61 1.49 1.54 1.58 1.58 1.65
2.02 2.00 2.00 2.02 2.03 1.95 1.90 1.96 2.04 2.03 2.02 2.02 2.01 1.94 1.94 1.96 1.93 1.93 1.93 1.94 1.94 1.96 1.95 1.90 1.89 1.91 1.89 1.85 1.80 1.78 1.81 1.85 1.90 1.96 1.97 1.96 1.92 1.85 1.85 1.93 1.90 1.85 1.83 1.78 1.74 1.76 1.81 1.85 1.87 1.90 1.92 1.91 1.87 1.88 1.89 1.95 2.01 1.92 1.83 1.79 1.76 1.68 1.61 1.58 1.61 1.64 1.60 1.57 1.60 1.59 1.55 1.51 1.54 1.60 1.59 1.61 1.66 1.67 1.68 1.70 1.66 1.62 1.54 1.49 1.46
1.94 1.95 2.00 2.06 2.05 2.01 1.96 1.94 1.96 2.00 2.00 2.00 2.01 1.99 1.99 1.99 1.97 1.96 1.93 1.91 1.92 1.91 1.88 1.89 1.93 1.98 1.97 1.90 1.81 1.77 1.79 1.87 1.90 1.91 1.94 1.97 1.97 1.87 1.79 1.82 1.83 1.78 1.79 1.80 1.82 1.82 1.82 1.85 1.89 1.94 1.95 1.91 1.87 1.85 1.84 1.90 2.00 1.98 1.91 1.85 1.80 1.80 1.78 1.66 1.57 1.54 1.58 1.55 1.52 1.52 1.53 1.48 1.49 1.53 1.51 1.54 1.56 1.63 1.69 1.73 1.72 1.68 1.64 1.63 1.66
1.81 1.85 1.90 1.95 2.02 2.04 2.02 1.99 1.99 2.00 2.02 2.02 2.01 2.00 1.95 1.95 1.94 1.92 1.91 1.96 1.98 1.92 1.89 1.88 1.88 1.91 1.91 1.89 1.89 1.90 1.85 1.88 1.93 1.98 2.02 2.04 2.01 1.97 1.86 1.76 1.68 1.65 1.68 1.74 1.80 1.85 1.87 1.86 1.89 1.89 1.95 2.00 1.99 1.93 1.86 1.83 1.87 1.92 1.92 1.89 1.89 1.88 1.85 1.84 1.83 1.75 1.70 1.58 1.49 1.48 1.53 1.56 1.52 1.55 1.63 1.63 1.68 1.55 1.59 1.61 1.68 1.72 1.75 1.74 1.76
1.74 1.75 1.81 1.86 1.90 1.95 1.99 1.98 2.01 2.05 2.06 2.03 2.01 1.98 1.95 1.91 1.91 1.91 1.92 1.94 1.93 1.93 1.94 1.91 1.91 1.89 1.89 1.92 1.92 1.90 1.91 1.93 1.95 1.99 2.00 1.99 1.97 1.92 1.87 1.81 1.74 1.67 1.64 1.67 1.75 1.83 1.91 1.91 1.86 1.87 1.94 1.97 1.97 1.93 1.88 1.86 1.86 1.86 1.84 1.83 1.84 1.87 1.90 1.93 1.91 1.88 1.84 1.75 1.63 1.49 1.55 1.65 1.57 1.63 1.75 1.80 1.68 1.61 1.60 1.55 1.62 1.61 1.66 1.72 1.90
1.70 1.72 1.73 1.77 1.81 1.86 1.93 1.92 1.86 1.90 1.94 1.94 1.95 1.96 1.98 1.98 1.95 1.95 1.93 1.91 1.91 1.92 1.93 1.92 1.93 1.92 1.94 1.97 1.94 1.93 1.90 1.93 1.93 1.93 1.94 1.96 1.97 1.93 1.84 1.82 1.78 1.74 1.73 1.73 1.75 1.82 1.89 1.91 1.91 1.91 1.97 1.99 1.99 1.94 1.87 1.86 1.86 1.85 1.83 1.80 1.82 1.86 1.90 1.93 1.93 1.94 1.92 1.87 1.80 1.73 1.69 1.73 1.72 1.72 1.74 1.77 1.74 1.77 1.81 1.77 1.74 1.70 1.73 1.84 1.90
1.64 1.66 1.64 1.66 1.72 1.79 1.81 1.85 1.87 1.88 1.86 1.87 1.92 1.96 2.02 2.07 2.03 2.01 1.96 1.94 1.93 1.92 1.93 1.94 1.92 1.91 1.94 1.95 1.91 1.86 1.87 1.92 1.96 1.98 1.98 1.99 1.99 1.96 1.90 1.82 1.79 1.79 1.78 1.82 1.89 1.96 2.00 2.00 1.98 1.99 2.04 2.01 1.94 1.95 1.95 1.93 1.85 1.77 1.72 1.73 1.77 1.83 1.84 1.92 1.97 2.02 2.04 2.02 1.97 1.91 1.88 1.88 1.85 1.80 1.77 1.76 1.76 1.77 1.79 1.84 1.87 1.82 1.71 1.61 1.57
1.58 1.60 1.62 1.67 1.71 1.74 1.78 1.82 1.86 1.88 1.93 1.92 1.94 1.97 1.98 2.01 2.05 2.05 1.99 1.95 1.91 1.89 1.87 1.87 1.90 1.90 1.88 1.87 1.86 1.83 1.84 1.88 1.92 1.96 1.99 1.99 1.98 1.96 1.97 1.95 1.91 1.91 1.94 1.99 2.00 2.02 1.98 1.98 1.95 1.89 1.95 1.98 1.98 1.94 1.93 1.93 1.84 1.76 1.67 1.62 1.67 1.74 1.80 1.89 1.89 1.87 1.88 1.91 1.95 1.98 1.97 1.95 1.94 1.93 1.87 1.83 1.79 1.77 1.70 1.59 1.58 1.75 1.67 1.54 1.56
1.60 1.61 1.60 1.65 1.68 1.73 1.75 1.79 1.81 1.86 1.90 1.90 1.92 1.96 1.97 1.97 1.96 1.97 1.91 1.86 1.82 1.82 1.82 1.82 1.85 1.85 1.83 1.81 1.83 1.83 1.84 1.87 1.88 1.91 1.95 1.96 1.95 1.91 1.97 2.00 2.02 1.99 2.06 2.09 2.13 2.08 2.08 2.09 2.00 1.92 1.91 1.94 1.99 1.98 1.93 1.89 1.81 1.77 1.73 1.68 1.65 1.67 1.73 1.82 1.82 1.81 1.79 1.77 1.79 1.85 1.89 1.91 1.93 1.91 1.89 1.87 1.85 1.83 1.69 1.50 1.59 1.65 1.56 1.59 1.54
1.57 1.57 1.59 1.65 1.69 1.70 1.73 1.77 1.78 1.82 1.84 1.87 1.88 1.84 1.81 1.79 1.79 1.77 1.73 1.71 1.69 1.71 1.71 1.70 1.74 1.79 1.81 1.79 1.80 1.76 1.76 1.78 1.81 1.83 1.86 1.90 1.94 1.95 1.94 1.94 1.91 1.94 1.98 2.00 2.08 2.02 2.02 2.05 2.02 1.99 1.94 1.92 1.91 1.91 1.91 1.89 1.79 1.72 1.69 1.65 1.62 1.64 1.72 1.78 1.75 1.69 1.67 1.63 1.64 1.68 1.70 1.76 1.81 1.84 1.84 1.84 1.83 1.83 1.78 1.70 1.72 1.62 1.49 1.51 1.58
1.60 1.60 1.59 1.60 1.66 1.68 1.71 1.70 1.73 1.74 1.73 1.73 1.72 1.70 1.72 1.71 1.71 1.68 1.67 1.66 1.63 1.63 1.63 1.61 1.59 1.61 1.67 1.69 1.70 1.72 1.74 1.77 1.76 1.73 1.74 1.77 1.81 1.89 1.94 1.92 1.90 1.92 2.01 2.08 2.02 2.00 1.97 1.92 1.95 1.95 1.96 1.94 1.93 1.92 1.92 1.92 1.88 1.84 1.81 1.72 1.67 1.66 1.80 1.80 1.79 1.76 1.72 1.68 1.64 1.65 1.64 1.67 1.68 1.70 1.73 1.75 1.78 1.80 1.78 1.76 1.75 1.73 1.63 1.59 1.62
1.59 1.60 1.59 1.58 1.59 1.59 1.63 1.65 1.64 1.65 1.66 1.66 1.69 1.71 1.71 1.67 1.65 1.61 1.56 1.56 1.55 1.52 1.50 1.49 1.49 1.49 1.52 1.56 1.60 1.63 1.66 1.66 1.67 1.68 1.72 1.75 1.79 1.80 1.84 1.96 2.04 2.07 2.07 2.07 2.02 2.00 2.00 1.98 1.97 1.99 2.03 2.02 2.01 2.02 2.01 1.99 1.96 1.90 1.84 1.77 1.77 1.80 1.83 1.78 1.79 1.82 1.77 1.75 1.74 1.72 1.72 1.73 1.74 1.74 1.74 1.75 1.76 1.79 1.78 1.78 1.79 1.81 1.76 1.67 1.65
1.47 1.47 1.48 1.50 1.52 1.53 1.55 1.61 1.65 1.64 1.64 1.62 1.57 1.56 1.61 1.62 1.58 1.54 1.51 1.49 1.45 1.43 1.42 1.40 1.37 1.37 1.41 1.46 1.49 1.53 1.59 1.61 1.63 1.64 1.64 1.65 1.65 1.65 1.61 1.63 1.70 1.74 1.83 1.92 2.10 2.10 2.02 2.02 2.00 2.04 2.08 2.07 2.06 2.05 2.03 1.99 1.95 1.91 1.88 1.87 1.86 1.84 1.81 1.83 1.81 1.78 1.76 1.74 1.74 1.73 1.73 1.73 1.75 1.77 1.79 1.81 1.82 1.83 1.83 1.82 1.80 1.78 1.79 1.82 1.78
1.33 1.34 1.35 1.36 1.38 1.41 1.47 1.52 1.54 1.57 1.56 1.57 1.54 1.51 1.53 1.52 1.50 1.50 1.47 1.45 1.42 1.39 1.37 1.37 1.34 1.30 1.30 1.31 1.34 1.38 1.42 1.47 1.50 1.52 1.54 1.55 1.59 1.61 1.63 1.67 1.71 1.76 1.70 1.68 1.74 1.81 1.86 1.88 1.92 1.95 1.97 1.96 1.95 1.94 1.92 1.90 1.88 1.84 1.83 1.81 1.82 1.82 1.81 1.77 1.75 1.73 1.72 1.72 1.71 1.70 1.72 1.74 1.74 1.75 1.77 1.77 1.80 1.82 1.83 1.85 1.86 1.86 1.83 1.81 1.80
1.16 1.17 1.18 1.21 1.23 1.25 1.30 1.36 1.40 1.43 1.43 1.42 1.41 1.37 1.36 1.38 1.39 1.40 1.40 1.38 1.36 1.35 1.36 1.34 1.31 1.27 1.23 1.23 1.25 1.28 1.32 1.34 1.37 1.40 1.42 1.43 1.46 1.50 1.53 1.55 1.60 1.64 1.67 1.67 1.69 1.70 1.72 1.77 1.80 1.81 1.87 1.87 1.85 1.84 1.82 1.81 1.79 1.79 1.79 1.81 1.81 1.80 1.78 1.76 1.74 1.73 1.72 1.71 1.69 1.67 1.68 1.73 1.75 1.75 1.76 1.79 1.80 1.83 1.84 1.83 1.81 1.80 1.78 1.78 1.79
1.05 0.99 0.99 1.01 1.01 1.01 1.02 1.05 1.13 1.22 1.29 1.31 1.28 1.28 1.27 1.27 1.25 1.29 1.30 1.30 1.30 1.27 1.26 1.24 1.18 1.14 1.11 1.09 1.10 1.14 1.20 1.23 1.25 1.29 1.31 1.35 1.38 1.38 1.39 1.43 1.46 1.47 1.47 1.52 1.55 1.56 1.63 1.70 1.74 1.80 1.83 1.83 1.82 1.80 1.78 1.78 1.79 1.79 1.80 1.80 1.80 1.76 1.74 1.73 1.72 1.71 1.68 1.66 1.67 1.70 1.72 1.75 1.78 1.80 1.84 1.85 1.86 1.85 1.81 1.80 1.80 1.80 1.80 1.79 1.78
1.01 0.99 0.96 0.94 0.96 0.98 0.96 0.93 0.92 0.94 0.98 1.03 1.04 1.07 1.08 1.09 1.08 1.08 1.07 1.05 1.03 0.99 0.95 0.93 0.91 0.90 0.91 0.91 0.91 0.94 0.98 1.01 1.06 1.12 1.18 1.22 1.26 1.27 1.27 1.27 1.29 1.33 1.37 1.40 1.46 1.55 1.64 1.67 1.70 1.73 1.73 1.72 1.71 1.69 1.69 1.72 1.72 1.72 1.73 1.74 1.73 1.71 1.70 1.68 1.66 1.63 1.61 1.65 1.67 1.68 1.72 1.78 1.81 1.85 1.87 1.87 1.82 1.78 1.77 1.74 1.72 1.71 1.74 1.72 1.69
0.98 0.96 0.96 0.97 0.98 0.99 0.99 0.98 0.95 0.94 0.94 0.94 0.95 0.93 0.90 0.86 0.81 0.77 0.76 0.75 0.74 0.73 0.73 0.72 0.72 0.73 0.74 0.77 0.79 0.81 0.82 0.85 0.88 0.93 1.01 1.04 1.07 1.09 1.10 1.15 1.26 1.35 1.38 1.41 1.46 1.52 1.57 1.58 1.59 1.60 1.61 1.61 1.60 1.60 1.60 1.60 1.56 1.58 1.61 1.63 1.63 1.63 1.64 1.63 1.61 1.59 1.59 1.59 1.61 1.65 1.69 1.74 1.78 1.77 1.75 1.75 1.74 1.77 1.80 1.75 1.71 1.69 1.69 1.69 1.65
0.96 0.95 0.96 0.98 0.99 1.01 1.01 1.01 0.97 0.94 0.94 0.94 0.92 0.91 0.91 0.89 0.84 0.80 0.76 0.73 0.69 0.67 0.67 0.66 0.65 0.66 0.68 0.72 0.74 0.76 0.78 0.80 0.81 0.83 0.88 0.93 0.96 1.00 1.04 1.09 1.15 1.20 1.23 1.28 1.33 1.38 1.40 1.44 1.45 1.48 1.48 1.48 1.47 1.45 1.41 1.37 1.38 1.40 1.42 1.47 1.50 1.52 1.54 1.56 1.57 1.56 1.56 1.57 1.57 1.61 1.63 1.65 1.63 1.64 1.66 1.66 1.65 1.67 1.69 1.65 1.60 1.58 1.60 1.58 1.52
0.99 0.96 0.97 0.97 0.97 0.99 0.99 0.99 0.98 0.96 0.94 0.93 0.93 0.93 0.90 0.89 0.86 0.85 0.88 0.86 0.81 0.76 0.70 0.68 0.67 0.65 0.65 0.65 0.66 0.67 0.71 0.73 0.78 0.84 0.83 0.83 0.84 0.87 0.91 0.96 1.02 1.04 1.07 1.11 1.15 1.19 1.21 1.21 1.19 1.19 1.18 1.16 1.17 1.16 1.17 1.23 1.23 1.26 1.29 1.34 1.36 1.40 1.41 1.40 1.38 1.39 1.43 1.45 1.44 1.46 1.47 1.50 1.51 1.54 1.54 1.53 1.54 1.54 1.56 1.51 1.50 1.44 1.41 1.41 1.38
0.98 0.96 0.96 0.94 0.93 0.93 0.93 0.92 0.93 0.92 0.90 0.89 0.88 0.88 0.93 0.92 0.89 0.84 0.81 0.84 0.83 0.81 0.77 0.70 0.68 0.66 0.63 0.65 0.71 0.68 0.69 0.75 0.81 0.81 0.81 0.81 0.81 0.82 0.83 0.85 0.87 0.91 0.94 0.96 0.96 0.90 0.89 0.85 0.88 0.89 0.92 0.94 0.91 0.92 1.00 1.05 1.05 1.06 1.13 1.18 1.20 1.20 1.21 1.22 1.24 1.28 1.33 1.34 1.35 1.34 1.34 1.36 1.36 1.37 1.36 1.35 1.36 1.36 1.38 1.36 1.31 1.30 1.24 1.22 1.21
0.93 0.92 0.93 0.91 0.92 0.91 0.88 0.85 0.85 0.85 0.85 0.84 0.81 0.80 0.79 0.83 0.86 0.85 0.82 0.80 0.77 0.75 0.72 0.69 0.67 0.65 0.64 0.63 0.72 0.77 0.77 0.77 0.76 0.76 0.77 0.77 0.78 0.78 0.77 0.77 0.76 0.76 0.77 0.73 0.70 0.71 0.70 0.69 0.72 0.75 0.78 0.82 0.81 0.83 0.89 0.91 0.90 0.93 0.98 1.02 1.05 1.07 1.09 1.11 1.12 1.17 1.18 1.20 1.22 1.24 1.25 1.24 1.22 1.23 1.21 1.21 1.20 1.20 1.20 1.20 1.18 1.17 1.15 1.14 1.11
0.78 0.80 0.83 0.84 0.83 0.82 0.82 0.81 0.80 0.77 0.77 0.77 0.76 0.75 0.73 0.72 0.72 0.79 0.81 0.78 0.77 0.75 0.71 0.67 0.64 0.63 0.65 0.68 0.71 0.72 0.73 0.73 0.74 0.76 0.77 0.77 0.75 0.75 0.74 0.73 0.73 0.73 0.73 0.72 0.64 0.65 0.69 0.70 0.71 0.74 0.76 0.77 0.79 0.83 0.87 0.90 0.89 0.86 0.91 0.91 0.92 1.00 0.99 0.98 1.04 1.07 1.08 1.09 1.11 1.14 1.16 1.16 1.16 1.15 1.15 1.14 1.14 1.13 1.13 1.12 1.12 1.10 1.08 1.08 1.05
0.74 0.73 0.74 0.72 0.70 0.69 0.68 0.67 0.69 0.68 0.64 0.66 0.67 0.70 0.70 0.67 0.65 0.65 0.73 0.79 0.78 0.76 0.73 0.70 0.66 0.65 0.67 0.71 0.72 0.70 0.71 0.74 0.77 0.78 0.78 0.77 0.77 0.76 0.76 0.75 0.74 0.73 0.72 0.68 0.66 0.67 0.71 0.72 0.72 0.74 0.76 0.75 0.78 0.79 0.81 0.83 0.81 0.82 0.90 0.89 0.90 0.96 0.96 0.96 0.99 1.00 1.00 0.99 1.01 1.04 1.07 1.09 1.12 1.14 1.15 1.16 1.15 1.12 1.13 1.11 1.11 1.08 1.05 1.01 1.00
0.74 0.74 0.73 0.72 0.66 0.57 0.53 0.51 0.50 0.51 0.58 0.59 0.61 0.65 0.68 0.69 0.66 0.65 0.64 0.67 0.73 0.75 0.76 0.73 0.69 0.67 0.69 0.73 0.74 0.73 0.74 0.76 0.79 0.83 0.84 0.81 0.78 0.76 0.74 0.72 0.73 0.73 0.69 0.65 0.67 0.66 0.70 0.71 0.72 0.73 0.75 0.77 0.77 0.78 0.78 0.78 0.81 0.82 0.86 0.90 0.92 0.92 0.91 0.94 0.96 0.96 0.95 0.93 0.94 0.97 1.00 1.03 1.06 1.07 1.09 1.10 1.11 1.11 1.09 1.09 1.08 1.05 1.01 0.97 0.93
0.74 0.77 0.72 0.72 0.70 0.65 0.60 0.57 0.55 0.53 0.50 0.54 0.61 0.65 0.66 0.66 0.68 0.67 0.65 0.63 0.64 0.66 0.67 0.69 0.72 0.73 0.72 0.74 0.76 0.78 0.78 0.78 0.79 0.81 0.81 0.79 0.76 0.74 0.72 0.66 0.62 0.64 0.66 0.66 0.66 0.68 0.69 0.70 0.71 0.73 0.74 0.74 0.75 0.76 0.76 0.78 0.79 0.80 0.80 0.80 0.83 0.84 0.84 0.84 0.87 0.91 0.89 0.88 0.92 0.96 0.99 1.00 1.02 1.04 1.03 1.01 1.00 1.00 1.01 1.01 0.99 0.97 0.93 0.90 0.88
0.64 0.69 0.72 0.70 0.68 0.64 0.59 0.54 0.49 0.50 0.50 0.52 0.56 0.60 0.64 0.67 0.64 0.64 0.65 0.67 0.68 0.70 0.71 0.71 0.71 0.75 0.76 0.75 0.76 0.77 0.78 0.79 0.80 0.80 0.79 0.78 0.76 0.72 0.61 0.58 0.59 0.60 0.61 0.64 0.65 0.66 0.69 0.71 0.72 0.72 0.74 0.74 0.75 0.75 0.77 0.77 0.78 0.78 0.79 0.79 0.80 0.81 0.81 0.80 0.81 0.83 0.85 0.84 0.84 0.86 0.89 0.92 0.97 0.98 0.98 0.95 0.91 0.88 0.86 0.86 0.85 0.84 0.82 0.81 0.80
0.59 0.63 0.69 0.67 0.64 0.61 0.58 0.53 0.50 0.54 0.54 0.54 0.55 0.57 0.60 0.63 0.63 0.63 0.64 0.67 0.71 0.74 0.73 0.74 0.73 0.73 0.75 0.75 0.76 0.76 0.76 0.78 0.78 0.77 0.77 0.75 0.74 0.70 0.65 0.62 0.60 0.62 0.62 0.64 0.65 0.66 0.65 0.66 0.68 0.70 0.72 0.73 0.75 0.76 0.76 0.76 0.76 0.77 0.77 0.77 0.78 0.77 0.78 0.79 0.80 0.82 0.83 0.81 0.81 0.82 0.81 0.80 0.82 0.82 0.82 0.80 0.79 0.78 0.77 0.76 0.74 0.73 0.71 0.70 0.69
0.59 0.62 0.63 0.62 0.60 0.57 0.54 0.48 0.50 0.52 0.54 0.55 0.54 0.56 0.58 0.60 0.60 0.63 0.64 0.66 0.70 0.72 0.71 0.71 0.71 0.69 0.67 0.69 0.77 0.77 0.75 0.77 0.75 0.74 0.74 0.72 0.70 0.68 0.66 0.65 0.66 0.65 0.65 0.67 0.67 0.65 0.64 0.65 0.66 0.65 0.66 0.67 0.67 0.69 0.71 0.72 0.75 0.75 0.76 0.76 0.77 0.77 0.77 0.76 0.76 0.76 0.76 0.75 0.74 0.74 0.73 0.72 0.71 0.71 0.70 0.68 0.65 0.64 0.64 0.64 0.62 0.61 0.60 0.60 0.60
0.60 0.63 0.64 0.63 0.61 0.57 0.53 0.52 0.48 0.52 0.56 0.57 0.59 0.61 0.61 0.60 0.59 0.60 0.62 0.63 0.64 0.67 0.70 0.71 0.70 0.70 0.71 0.74 0.74 0.78 0.78 0.73 0.68 0.65 0.67 0.69 0.71 0.70 0.69 0.68 0.68 0.68 0.69 0.69 0.69 0.67 0.65 0.63 0.64 0.64 0.64 0.64 0.65 0.65 0.65 0.65 0.67 0.68 0.68 0.67 0.66 0.65 0.64 0.64 0.65 0.65 0.66 0.66 0.66 0.66 0.66 0.66 0.65 0.64 0.63 0.61 0.59 0.59 0.59 0.59 0.58 0.58 0.57 0.59 0.61
0.53 0.59 0.62 0.61 0.58 0.56 0.57 0.61 0.60 0.60 0.60 0.60 0.61 0.63 0.65 0.64 0.62 0.61 0.62 0.62 0.63 0.65 0.69 0.71 0.71 0.72 0.76 0.76 0.71 0.72 0.70 0.72 0.70 0.69 0.69 0.69 0.69 0.70 0.69 0.68 0.68 0.68 0.68 0.69 0.69 0.69 0.67 0.66 0.65 0.63 0.62 0.62 0.61 0.61 0.61 0.61 0.61 0.62 0.62 0.61 0.61 0.60 0.61 0.62 0.62 0.62 0.62 0.63 0.63 0.63 0.63 0.63 0.64 0.64 0.63 0.62 0.62 0.63 0.61 0.60 0.61 0.60 0.60 0.60 0.61
0.50 0.56 0.60 0.60 0.59 0.56 0.57 0.62 0.61 0.63 0.64 0.65 0.65 0.65 0.64 0.65 0.65 0.66 0.65 0.64 0.64 0.64 0.65 0.68 0.71 0.73 0.72 0.69 0.69 0.68 0.65 0.67 0.70 0.70 0.70 0.70 0.70 0.69 0.68 0.68 0.68 0.69 0.70 0.71 0.72 0.71 0.70 0.68 0.66 0.64 0.63 0.63 0.62 0.62 0.61 0.61 0.60 0.59 0.58 0.57 0.56 0.56 0.56 0.57 0.57 0.58 0.59 0.59 0.59 0.60 0.61 0.62 0.62 0.62 0.60 0.62 0.63 0.62 0.62 0.63 0.62 0.62 0.62 0.62 0.62
0.45 0.50 0.55 0.59 0.59 0.55 0.59 0.60 0.61 0.60 0.61 0.61 0.62 0.60 0.60 0.60 0.60 0.60 0.61 0.63 0.64 0.64 0.64 0.65 0.68 0.70 0.70 0.70 0.68 0.66 0.65 0.68 0.73 0.74 0.75 0.75 0.73 0.72 0.72 0.72 0.73 0.73 0.74 0.74 0.74 0.72 0.71 0.71 0.69 0.67 0.65 0.64 0.63 0.62 0.61 0.60 0.59 0.58 0.57 0.55 0.54 0.53 0.52 0.51 0.51 0.51 0.52 0.52 0.53 0.54 0.54 0.55 0.56 0.57 0.57 0.57 0.57 0.57 0.58 0.59 0.61 0.62 0.61 0.62 0.63
0.40 0.40 0.45 0.53 0.53 0.54 0.58 0.59 0.58 0.55 0.57 0.58 0.58 0.60 0.59 0.56 0.55 0.56 0.58 0.61 0.63 0.63 0.64 0.65 0.67 0.69 0.70 0.69 0.67 0.68 0.69 0.70 0.74 0.76 0.75 0.74 0.74 0.74 0.74 0.74 0.75 0.76 0.77 0.78 0.78 0.76 0.74 0.73 0.71 0.70 0.68 0.67 0.66 0.65 0.63 0.62 0.60 0.58 0.55 0.53 0.51 0.50 0.49 0.50 0.50 0.50 0.50 0.49 0.49 0.50 0.50 0.51 0.51 0.50 0.50 0.50 0.49 0.50 0.51 0.52 0.56 0.56 0.57 0.57 0.58
0.40 0.39 0.43 0.51 0.56 0.60 0.62 0.61 0.57 0.56 0.57 0.59 0.59 0.59 0.59 0.58 0.57 0.57 0.57 0.58 0.60 0.62 0.64 0.65 0.67 0.69 0.69 0.68 0.69 0.67 0.66 0.67 0.70 0.73 0.73 0.73 0.73 0.73 0.75 0.76 0.78 0.78 0.79 0.79 0.78 0.77 0.75 0.72 0.70 0.68 0.67 0.67 0.67 0.67 0.66 0.64 0.61 0.57 0.54 0.52 0.50 0.49 0.48 0.47 0.47 0.47 0.47 0.46 0.46 0.46 0.47 0.48 0.49 0.49 0.49 0.50 0.49 0.47 0.47 0.49 0.50 0.52 0.53 0.53 0.54
0.49 0.52 0.56 0.58 0.59 0.58 0.57 0.58 0.56 0.57 0.57 0.57 0.58 0.59 0.59 0.58 0.58 0.59 0.59 0.58 0.59 0.60 0.62 0.63 0.65 0.66 0.65 0.66 0.66 0.66 0.67 0.67 0.68 0.70 0.71 0.72 0.73 0.74 0.76 0.77 0.77 0.77 0.77 0.77 0.77 0.76 0.75 0.73 0.71 0.69 0.67 0.67 0.66 0.64 0.63 0.61 0.60 0.57 0.56 0.54 0.52 0.51 0.50 0.50 0.50 0.49 0.47 0.46 0.45 0.46 0.47 0.47 0.47 0.48 0.48 0.50 0.50 0.48 0.47 0.48 0.49 0.49 0.49 0.49 0.50
0.55 0.57 0.58 0.58 0.57 0.57 0.57 0.57 0.57 0.56 0.56 0.56 0.56 0.57 0.59 0.60 0.62 0.63 0.63 0.62 0.62 0.61 0.62 0.64 0.67 0.68 0.69 0.68 0.68 0.66 0.65 0.66 0.67 0.69 0.71 0.73 0.74 0.74 0.75 0.75 0.76 0.77 0.77 0.77 0.77 0.75 0.74 0.73 0.71 0.69 0.67 0.65 0.63 0.61 0.60 0.59 0.58 0.58 0.57 0.56 0.54 0.53 0.52 0.51 0.51 0.48 0.46 0.45 0.45 0.46 0.48 0.50 0.51 0.51 0.51 0.50 0.49 0.50 0.48 0.49 0.49 0.50 0.49 0.49 0.49
0.57 0.57 0.56 0.56 0.54 0.54 0.55 0.56 0.56 0.55 0.55 0.56 0.57 0.58 0.58 0.59 0.60 0.62 0.63 0.64 0.64 0.64 0.63 0.64 0.65 0.65 0.65 0.65 0.66 0.67 0.67 0.67 0.67 0.68 0.69 0.71 0.72 0.74 0.75 0.75 0.75 0.75 0.76 0.77 0.76 0.75 0.73 0.71 0.69 0.66 0.64 0.63 0.61 0.59 0.58 0.58 0.58 0.57 0.57 0.55 0.54 0.54 0.53 0.51 0.49 0.47 0.46 0.46 0.46 0.47 0.50 0.53 0.54 0.54 0.54 0.52 0.51 0.50 0.49 0.49 0.49 0.48 0.48 0.49 0.49
0.58 0.57 0.56 0.55 0.54 0.53 0.54 0.55 0.55 0.55 0.56 0.56 0.57 0.57 0.58 0.59 0.60 0.61 0.62 0.62 0.63 0.63 0.63 0.64 0.64 0.65 0.65 0.65 0.66 0.67 0.69 0.69 0.70 0.71 0.72 0.72 0.73 0.74 0.74 0.73 0.73 0.73 0.73 0.73 0.73 0.72 0.70 0.69 0.68 0.66 0.64 0.62 0.60 0.58 0.57 0.57 0.57 0.57 0.56 0.55 0.55 0.55 0.54 0.52 0.49 0.48 0.48 0.48 0.49 0.51 0.54 0.55 0.56 0.57 0.57 0.55 0.53 0.53 0.50 0.49 0.49 0.48 0.48 0.48 0.49
0.60 0.58 0.57 0.57 0.56 0.55 0.55 0.55 0.56 0.56 0.57 0.57 0.57 0.57 0.58 0.59 0.60 0.60 0.61 0.61 0.61 0.62 0.62 0.61 0.61 0.62 0.63 0.64 0.65 0.67 0.71 0.73 0.70 0.70 0.70 0.70 0.70 0.70 0.69 0.69 0.69 0.68 0.67 0.67 0.67 0.68 0.68 0.68 0.67 0.65 0.64 0.62 0.60 0.58 0.57 0.56 0.56 0.56 0.56 0.56 0.56 0.55 0.54 0.50 0.48 0.47 0.48 0.50 0.51 0.54 0.56 0.57 0.58 0.58 0.57 0.56 0.55 0.54 0.54 0.53 0.50 0.48 0.47 0.48 0.49
0.60 0.59 0.58 0.56 0.56 0.56 0.57 0.57 0.57 0.57 0.57 0.57 0.56 0.55 0.56 0.56 0.57 0.58 0.58 0.58 0.59 0.60 0.61 0.61 0.60 0.60 0.61 0.62 0.63 0.63 0.64 0.66 0.67 0.67 0.66 0.66 0.65 0.65 0.65 0.65 0.65 0.65 0.65 0.65 0.66 0.67 0.67 0.66 0.65 0.65 0.64 0.62 0.60 0.58 0.57 0.57 0.57 0.58 0.57 0.57 0.56 0.55 0.53 0.50 0.48 0.47 0.50 0.50 0.52 0.54 0.55 0.57 0.58 0.58 0.57 0.57 0.56 0.56 0.55 0.54 0.52 0.52 0.51 0.50 0.51
0.59 0.58 0.56 0.56 0.56 0.56 0.55 0.54 0.54 0.55 0.56 0.56 0.55 0.55 0.55 0.55 0.56 0.56 0.56 0.56 0.57 0.58 0.59 0.58 0.58 0.58 0.59 0.61 0.62 0.63 0.64 0.65 0.66 0.66 0.66 0.66 0.66 0.66 0.66 0.66 0.65 0.66 0.66 0.67 0.66 0.66 0.65 0.65 0.64 0.63 0.62 0.60 0.58 0.58 0.58 0.58 0.58 0.58 0.57 0.56 0.55 0.54 0.52 0.49 0.48 0.48 0.50 0.52 0.54 0.56 0.55 0.55 0.56 0.56 0.56 0.56 0.56 0.56 0.56 0.55 0.54 0.54 0.53 0.52 0.50
Wind_Speed
18 17 17 17 17 16 16 16 15 15 15 14 14 14 14 13 13 13 13 13 13 13 13 13 13 13 13 13 12 12 12 12 12 12 12 11 11 11 11 11 11 11 11 11 11 11 11 11 10 10 10 10 10 10 10 10 10 10 10 9 9 9 9 9 9 10 10 10 9 10 10 10 10 9 9 10 11 11 12 12 12 12 12 12 11
19 18 18 18 18 17 17 17 16 16 16 15 15 14 14 14 14 14 14 14 14 14 14 14 14 14 14 14 13 13 13 13 13 13 13 13 12 12 12 12 12 12 12 12 12 11 11 11 11 11 11 11 12 12 11 11 10 10 10 10 10 10 9 10 10 10 10 10 10 10 10 10 10 10 10 11 12 12 12 12 13 12 12 12 12
19 19 19 19 18 18 18 17 17 17 17 16 15 15 15 15 15 15 14 14 14 15 14 14 14 15 15 14 14 14 14 13 13 13 13 13 13 13 12 12 13 13 13 13 13 12 12 12 12 12 12 12 12 12 12 11 11 11 11 11 11 11 10 10 10 11 11 11 11 11 11 11 11 11 11 12 12 12 12 13 13 13 13 12 12
19 20 20 20 19 19 18 18 18 18 18 17 17 16 16 16 16 16 15 15 15 15 15 14 14 15 15 15 15 15 15 14 14 14 14 14 14 14 14 14 14 14 13 14 14 14 13 13 13 13 12 12 12 12 12 12 12 12 12 12 12 12 11 11 11 11 12 12 12 12 12 12 12 12 12 12 12 12 13 13 13 13 13 13 13
20 20 20 20 20 19 19 18 18 19 18 18 18 18 17 17 17 17 17 16 16 16 16 16 15 15 15 16 16 16 16 16 15 15 15 15 15 16 16 15 15 15 15 15 15 15 14 14 14 14 14 13 13 13 13 13 13 13 13 13 13 13 12 12 12 12 12 13 13 12 12 13 13 13 13 13 13 13 13 13 13 14 14 14 14
20 21 21 21 20 20 19 19 19 19 19 19 18 18 18 18 18 18 18 18 18 18 17 17 17 17 17 17 17 17 17 16 16 16 16 16 17 17 17 17 17 16 16 16 16 16 16 16 16 15 15 15 15 15 14 14 14 14 14 14 14 14 13 13 13 13 13 13 13 13 13 14 14 14 14 14 14 14 14 14 14 14 14 14 14
20 21 21 21 20 20 20 20 20 20 20 19 19 19 19 19 19 19 19 19 18 18 19 19 19 19 18 18 18 18 18 18 18 18 18 17 17 17 18 18 18 17 17 17 17 17 17 17 17 16 16 16 16 16 15 15 15 15 15 15 14 14 14 14 14 14 14 14 14 15 15 15 15 15 15 15 15 15 15 15 15 15 15 15 15
21 21 21 21 20 20 20 20 20 20 20 19 19 19 19 19 19 19 19 19 18 18 19 19 19 19 19 19 19 19 19 20 20 20 20 19 18 18 18 19 18 18 18 18 18 18 18 18 18 17 17 16 16 16 16 15 15 15 15 15 15 15 15 15 15 15 15 15 16 16 16 16 16 16 16 16 16 16 16 16 16 16 16 16 16
22 21 21 21 20 19 19 19 19 20 20 19 19 19 19 20 20 19 19 19 19 19 19 19 19 19 19 19 19 20 20 20 21 21 21 20 19 19 19 19 19 19 19 19 19 18 18 19 19 18 17 17 17 17 16 16 16 16 16 15 15 15 16 16 16 16 16 17 17 17 18 18 18 17 17 17 17 18 17 17 18 18 17 17 16
21 21 21 21 19 18 19 19 19 20 20 19 19 19 19 19 20 20 19 19 19 19 19 20 20 20 20 19 20 20 20 20 20 20 20 20 20 19 20 20 20 20 20 20 20 19 19 19 19 19 18 18 18 18 17 17 17 17 17 16 16 16 17 17 17 17 17 18 18 18 18 18 18 18 19 19 19 19 19 19 19 19 18 18 17
17 19 20 21 20 19 20 20 20 21 21 20 20 19 19 19 19 19 19 19 19 19 19 20 20 20 20 20 20 20 20 21 21 21 21 21 20 20 21 22 22 21 21 21 21 21 21 20 20 20 19 19 19 19 19 19 18 18 18 18 18 18 18 18 18 18 19 19 19 19 19 20 20 20 20 20 20 20 20 20 20 20 19 19 18
15 15 17 19 20 20 21 22 21 21 22 21 21 20 20 19 19 20 20 19 19 19 19 20 20 20 20 20 20 20 20 20 20 21 21 21 21 21 22 23 22 22 22 22 22 22 22 21 21 20 21 20 20 20 20 20 20 20 19 19 19 20 20 20 20 20 20 20 21 21 21 21 21 21 21 21 21 21 21 21 21 21 20 20 19
16 16 16 17 18 18 19 21 21 22 23 22 22 22 21 20 20 20 20 20 20 20 20 20 20 21 21 21 21 20 20 20 20 20 21 22 23 23 23 23 24 23 23 23 23 23 22 22 21 21 21 21 21 21 21 21 21 21 21 21 21 21 21 21 22 22 22 22 22 23 23 23 23 23 23 23 23 22 22 22 22 22 22 21 21
16 16 16 17 18 18 18 18 19 20 22 23 23 22 21 21 21 21 21 21 21 21 21 21 21 22 22 22 22 21 21 21 21 21 22 23 24 24 25 25 25 25 25 24 24 24 24 23 23 23 22 22 22 22 22 22 22 22 22 22 22 22 22 23 23 23 23 24 24 24 25 24 25 25 24 24 24 23 23 23 23 23 23 23 23
13 14 15 16 17 18 18 18 18 18 19 21 21 21 21 21 21 21 21 21 21 22 22 22 22 23 23 23 23 23 22 23 23 23 24 24 25 26 26 26 26 26 26 26 25 25 25 24 24 23 23 23 23 23 23 23 23 23 23 23 23 23 23 24 24 24 24 25 25 26 26 26 26 26 26 25 25 25 24 24 24 24 24 24 24
10 11 12 13 14 15 16 18 18 18 18 18 19 19 20 20 20 21 21 21 22 22 22 23 23 23 23 23 23 24 24 25 25 25 25 25 26 26 27 27 27 27 27 27 26 26 25 25 25 24 24 24 24 24 24 24 24 25 25 25 25 25 25 26 26 27 27 27 27 27 27 27 27 27 27 26 26 26 26 25 25 25 25 25 25
9 10 10 11 11 12 13 15 16 16 17 17 17 17 17 18 18 19 19 20 20 21 21 22 22 23 23 23 24 24 25 26 26 26 26 26 26 27 27 27 28 28 28 28 26 26 26 26 26 25 25 25 25 25 25 25 25 26 26 26 26 26 27 27 28 28 28 29 29 29 29 29 28 28 28 28 27 27 27 26 26 26 26 26 26
9 8 8 9 9 9 10 11 12 13 14 14 15 14 14 15 15 15 15 16 17 17 18 18 19 20 21 22 23 24 25 26 26 27 27 26 26 26 27 28 28 29 30 29 27 27 26 25 25 26 26 26 26 26 26 26 26 27 27 27 28 28 28 28 28 29 29 29 29 30 30 30 30 30 29 29 29 28 28 28 28 27 27 27 27
9 8 8 7 8 7 7 8 9 10 11 12 12 13 13 12 12 12 13 13 13 14 14 14 15 16 17 18 19 21 22 23 24 25 26 26 27 27 28 28 29 29 30 29 28 28 28 26 25 26 26 26 26 26 26 27 27 27 28 28 29 29 29 29 30 30 30 30 30 30 31 31 31 31 31 31 31 30 30 30 29 29 29 29 29
9 9 8 7 7 7 7 6 7 8 9 10 11 12 12 12 11 11 11 12 12 12 13 13 13 13 14 15 16 17 18 19 20 21 21 22 23 24 25 26 26 27 28 29 28 27 27 27 26 26 26 26 26 27 27 28 28 28 29 29 30 31 31 31 31 31 31 31 31 31 31 31 31 31 32 32 32 31 31 31 30 30 30 30 30
9 9 9 8 7 7 7 6 6 6 7 8 9 10 11 11 10 10 10 11 11 11 11 11 11 11 12 13 13 14 15 16 17 17 18 18 19 19 19 19 20 20 21 23 25 25 24 25 25 24 24 24 25 26 26 27 27 28 29 30 31 32 32 32 31 31 31 31 31 31 31 31 31 32 32 32 32 32 31 31 30 30 30 30 30
8 8 8 8 7 6 6 5 5 6 6 7 8 8 9 9 9 9 9 9 9 9 9 9 9 9 10 10 11 12 13 14 15 15 16 17 17 17 17 17 16 16 15 15 16 17 19 20 22 22 22 22 22 23 24 24 25 26 27 28 28 29 30 30 30 31 31 32 32 32 32 32 32 32 32 31 31 30 30 30 29 29 29 30 30
8 8 7 7 7 6 6 5 5 6 6 7 7 7 8 8 8 8 8 8 8 8 8 8 8 8 9 9 9 10 10 11 12 13 13 14 15 15 16 16 16 16 15 14 13 12 14 15 17 18 19 20 20 21 22 22 24 25 26 27 27 27 28 28 29 30 31 32 33 33 33 33 33 32 31 30 29 29 29 28 28 29 29 29 28
8 8 7 7 7 6 6 6 6 7 7 7 7 7 7 8 8 8 8 8 9 9 9 9 9 9 9 9 10 10 10 10 11 11 12 12 13 13 14 14 14 15 15 15 15 14 14 15 15 15 16 17 18 19 20 21 23 24 25 25 26 27 27 27 27 28 28 29 29 30 30 31 31 30 29 29 28 28 28 28 28 27 27 27 26
7 7 7 6 6 6 6 6 7 7 7 7 7 7 7 8 7 8 8 8 8 9 9 9 10 9 10 10 10 10 10 10 10 10 11 12 12 13 13 14 14 14 15 15 16 16 16 16 16 15 14 15 16 16 18 19 20 22 22 23 23 24 24 24 24 24 24 24 24 25 25 26 26 27 27 27 27 26 26 26 26 26 25 25 25
7 7 7 6 6 6 6 6 6 7 7 8 8 8 8 8 8 8 8 8 8 9 9 9 9 10 10 10 10 10 10 10 10 10 10 11 11 12 13 13 14 14 15 15 15 15 15 15 14 14 14 14 14 15 16 17 18 19 19 19 19 20 20 21 21 21 21 21 20 20 20 21 21 22 22 23 23 23 23 24 24 24 24 23 23
7 7 7 7 7 6 6 6 6 6 6 6 7 7 7 8 8 8 8 8 8 9 9 9 9 10 10 10 11 11 11 11 11 10 10 11 11 11 11 12 13 13 14 14 15 15 15 14 14 14 14 14 14 15 16 16 17 17 17 18 18 18 19 19 19 19 19 19 18 18 18 18 18 18 19 20 20 20 20 21 21 22 22 23 23
9 9 8 8 8 7 7 7 7 7 6 6 6 6 7 7 7 7 7 8 8 8 9 9 9 10 10 10 10 10 10 10 11 11 11 11 11 11 11 11 12 12 13 14 14 15 15 16 16 16 15 16 16 17 17 17 17 17 17 17 17 18 18 18 18 18 19 19 18 18 18 18 18 18 18 18 18 18 19 20 20 21 22 23 23
10 10 10 10 9 9 9 8 8 8 8 8 8 7 7 8 8 7 7 8 8 8 8 8 9 9 9 9 9 9 10 10 10 11 12 12 12 12 12 12 13 13 13 14 14 15 15 16 16 17 17 18 18 18 18 19 19 19 19 19 19 19 19 19 19 19 19 19 19 19 19 19 19 19 18 18 18 19 20 20 21 21 22 22 22
10 10 11 11 11 11 11 10 10 10 9 9 9 9 8 8 8 8 8 8 8 8 8 8 8 9 9 9 9 9 9 10 10 10 11 11 12 12 12 13 13 14 14 15 15 16 16 16 17 17 18 18 18 19 19 20 20 20 20 20 20 20 20 19 19 19 19 19 19 19 19 19 19 19 19 19 19 20 21 21 22 22 22 22 22
11 11 11 11 11 11 11 11 11 11 11 10 10 10 10 9 9 9 8 8 8 8 8 8 8 8 8 8 8 9 9 10 10 10 10 11 11 12 12 13 13 14 15 15 16 16 17 17 17 17 17 17 18 19 20 21 21 21 21 21 21 21 21 20 21 21 20 20 19 19 19 19 19 19 20 20 20 20 21 22 22 22 22 22 23
11 11 11 11 11 11 11 11 11 11 11 11 11 11 10 10 10 9 9 9 9 9 8 8 8 8 8 8 8 9 9 10 10 10 10 11 11 11 12 13 13 14 15 15 15 15 16 16 17 17 17 17 18 19 19 20 21 21 22 21 21 21 21 21 22 22 21 20 20 20 20 20 20 21 21 21 21 22 22 22 22 23 23 23 23
12 12 11 11 11 11 11 10 10 10 11 11 11 11 10 10 10 10 10 10 10 10 9 9 9 9 9 9 9 9 10 10 10 10 10 11 11 12 13 13 14 14 15 14 14 15 15 16 17 17 18 18 19 19 20 20 21 21 21 22 22 22 22 22 22 22 22 22 21 21 21 22 22 22 22 22 23 23 23 24 24 24 24 24 24
12 12 11 11 11 10 10 10 10 10 11 11 11 11 11 11 11 11 11 11 11 11 10 10 9 9 9 9 10 10 10 11 11 11 11 11 12 12 13 14 15 15 15 15 14 15 15 16 16 17 18 19 19 20 20 21 21 21 21 22 22 22 22 23 23 23 23 23 23 23 23 23 24 24 24 25 25 25 26 26 26 26 26 26 25
11 11 11 11 11 11 11 11 11 11 11 11 11 11 11 11 11 12 12 12 12 12 11 10 10 10 10 10 11 11 11 12 12 12 12 12 12 13 14 15 15 16 16 16 16 16 16 16 17 17 18 19 20 20 20 21 21 21 22 22 23 23 23 24 24 24 24 24 24 25 25 25 26 26 27 27 27 28 28 28 28 28 28 27 27
10 11 11 11 11 11 12 12 12 12 12 12 12 12 12 12 12 12 12 12 12 12 12 12 11 11 11 11 12 12 12 13 13 13 13 13 14 15 15 15 16 16 17 17 17 17 17 17 18 18 19 20 20 21 21 21 22 22 23 23 24 24 25 25 25 26 26 26 26 26 27 28 28 29 29 29 29 29 30 30 30 30 30 30 29
9 10 11 11 12 12 12 12 12 12 12 12 12 12 12 12 12 11 11 11 12 12 12 12 12 12 12 13 13 13 13 14 14 14 14 15 15 16 16 16 17 17 18 18 18 18 19 19 20 20 20 21 21 22 22 23 23 24 24 25 25 25 26 26 27 27 27 28 28 28 29 29 30 31 31 32 32 32 32 32 32 32 31 31 31
9 10 10 11 12 12 12 12 12 13 12 12 12 12 12 12 12 11 11 11 11 12 13 13 13 13 14 14 14 15 15 15 15 15 15 16 16 16 16 17 17 18 18 18 19 19 20 20 21 21 22 22 23 23 24 25 25 26 26 26 27 27 28 28 29 29 29 30 30 31 31 31 32 32 32 33 33 33 33 33 32 32 32 31 31
10 10 10 11 11 12 11 11 12 12 12 12 12 12 12 12 12 12 12 12 12 12 13 13 14 14 15 15 16 16 16 17 16 16 17 17 17 17 17 17 18 18 18 19 19 20 20 21 22 23 23 24 24 25 25 26 26 27 27 28 29 29 30 30 31 31 31 32 32 32 32 32 33 33 33 33 33 33 33 33 33 32 32 32 31
11 11 11 11 11 11 11 11 11 12 12 12 12 12 12 12 12 12 13 13 13 13 13 14 14 15 15 16 16 17 17 18 18 17 17 18 18 18 18 19 19 20 20 20 20 21 21 22 23 24 25 25 26 26 26 27 27 28 28 29 30 31 31 32 32 33 33 33 33 33 33 34 34 34 34 33 34 34 34 34 33 33 32 32 32
10 11 10 10 10 11 10 10 11 11 12 12 12 12 12 13 13 13 13 13 14 14 14 15 15 15 16 16 17 17 18 18 19 18 18 18 18 18 19 20 20 21 21 21 22 22 22 23 24 25 25 26 27 28 28 29 29 30 31 31 32 32 33 33 34 34 34 35 35 35 35 35 35 35 35 35 35 35 34 34 34 33 33 33 32
10 11 11 11 11 11 11 11 11 12 12 12 12 13 13 13 13 14 14 14 14 14 15 15 16 16 16 17 18 18 18 19 19 20 19 19 20 20 20 21 21 22 22 23 23 23 24 24 25 26 27 28 28 29 30 31 31 32 33 33 33 34 34 34 35 35 35 36 36 36 36 36 36 36 36 36 36 35 35 35 34 34 33 33 32
10 11 11 11 11 11 11 11 12 12 12 12 12 12 12 13 13 13 13 14 14 15 15 16 16 16 17 18 19 19 19 19 20 20 20 21 21 21 22 22 22 22 23 23 24 24 25 26 27 28 28 29 30 30 31 32 33 33 34 34 34 34 35 35 35 35 36 36 36 37 37 37 37 37 36 36 36 35 35 35 34 33 33 33 33
10 10 11 11 11 12 12 12 11 11 11 11 11 12 12 12 13 13 13 14 14 15 16 16 17 17 18 18 19 20 20 20 20 21 21 21 22 22 22 23 23 23 24 24 25 26 27 28 28 29 29 30 30 31 32 32 33 33 34 34 34 34 34 35 35 35 36 36 36 37 37 37 36 36 35 35 35 34 34 34 33 33 33 33 33
10 10 11 11 12 12 12 12 11 11 11 11 11 12 13 13 13 14 14 15 15 16 16 17 18 18 19 19 20 20 20 20 21 21 21 22 23 23 23 24 24 25 25 26 26 27 28 28 29 30 30 31 31 32 32 33 33 33 33 33 34 34 34 34 35 35 35 35 35 35 35 35 35 34 34 34 34 33 33 33 33 33 33 33 33
10 11 11 11 12 11 11 11 11 12 12 12 13 13 13 14 14 15 15 16 16 17 17 18 18 19 20 20 21 21 21 21 21 22 22 22 23 23 24 25 25 26 26 26 27 28 28 29 30 30 31 31 32 32 33 33 33 33 33 33 33 33 33 34 34 34 33 33 33 33 32 32 32 32 32 32 32 32 33 32 32 32 32 32 32
10 11 11 11 11 11 11 11 12 12 12 13 13 13 14 14 15 15 16 16 17 17 18 18 19 20 20 21 21 22 22 22 22 22 23 23 24 24 25 26 26 26 27 27 28 29 29 30 30 30 31 32 32 32 32 32 32 32 32 31 32 32 32 32 32 32 31 31 30 30 30 29 29 30 30 30 30 31 31 31 31 31 31 31 31
10 11 11 11 11 11 12 12 12 13 13 13 13 14 14 15 15 16 17 17 18 18 18 19 20 20 21 21 22 22 22 23 23 23 24 24 25 25 26 26 26 27 27 28 28 29 30 30 30 31 31 32 32 31 31 31 30 30 30 31 31 31 32 31 31 31 30 30 29 28 28 28 28 28 29 29 29 29 29 30 30 30 30 30 30
11 11 11 11 11 12 12 12 13 13 13 14 14 15 15 16 16 17 17 18 18 18 19 20 20 21 22 22 22 22 23 23 24 24 24 25 25 25 26 26 26 26 27 28 29 29 29 30 30 31 31 31 30 30 29 29 29 29 30 30 30 31 31 30 30 29 29 28 28 27 28 28 28 28 28 28 28 27 28 28 29 29 29 29 29
12 12 12 12 13 13 13 14 14 14 15 15 15 16 16 17 17 18 18 18 19 19 20 20 21 21 22 22 23 23 23 23 23 24 24 24 24 25 25 26 26 27 27 28 28 29 29 30 31 31 30 29 29 29 29 29 29 29 29 30 30 30 30 29 29 28 28 27 27 27 27 27 27 27 27 27 27 27 26 27 27 27 27 27 27
14 14 14 14 15 15 15 16 16 16 16 17 17 17 18 18 18 19 19 20 20 20 20 21 21 21 22 22 23 23 23 23 23 24 24 24 25 25 25 26 27 27 27 28 28 29 29 30 30 29 29 28 28 28 28 28 28 29 29 29 30 30 30 29 28 27 27 26 26 26 26 26 26 27 27 26 26 25 25 25 25 25 25 26 26
Wind_Direction
215 215 214 214 214 214 214 214 215 215 215 215 216 217 218 218 218 218 217 219 221 222 224 226 228 229 229 230 231 233 236 238 240 241 242 243 245 247 247 247 249 250 251 252 252 254 255 257 259 260 262 266 268 269 272 274 275 274 274 273 274 277 276 273 273 279 285 288 292 297 302 307 310 311 313 315 316 317 319 320 322 325 328 329 329
218 218 216 216 216 215 216 216 216 217 217 217 217 217 218 219 220 221 222 224 225 226 227 229 230 231 233 235 235 236 238 240 242 244 245 246 248 248 249 249 250 251 252 253 253 254 256 257 259 262 263 265 266 268 271 272 272 273 273 271 273 276 275 273 274 277 282 286 290 294 299 303 305 307 310 312 313 313 314 316 318 321 323 324 325
220 220 218 217 217 216 217 218 218 218 218 218 218 218 220 222 223 224 225 227 228 229 229 231 232 233 235 236 236 238 240 242 244 245 246 247 248 249 250 250 250 251 252 255 256 256 257 258 261 264 265 266 266 267 268 268 269 270 272 273 275 275 274 273 274 276 280 284 288 291 294 298 300 304 307 309 311 312 312 313 315 318 319 320 321
223 222 220 218 218 218 219 219 219 220 220 220 220 221 223 224 225 226 227 229 229 230 231 233 234 234 235 235 236 239 241 243 244 246 247 248 248 249 251 252 252 253 254 256 257 257 257 258 260 263 265 265 266 267 267 267 268 268 269 272 274 274 273 273 273 275 278 281 284 287 291 295 298 301 304 306 308 309 310 311 313 315 317 317 318
226 225 222 220 219 219 220 220 221 221 222 223 223 224 226 227 228 230 231 232 232 233 235 236 236 237 238 238 238 239 241 244 245 246 248 249 249 250 251 252 254 255 256 257 257 258 258 258 260 262 263 264 265 266 266 266 267 267 269 271 272 273 273 273 273 274 275 278 282 286 290 293 296 299 301 303 305 307 308 309 310 311 313 314 315
226 226 226 223 220 219 221 222 223 223 224 225 226 228 229 230 232 233 235 236 236 236 238 239 239 240 241 242 241 241 242 244 246 247 249 250 251 252 252 252 254 255 256 257 257 258 258 259 261 263 263 264 265 265 265 265 266 268 269 270 271 271 272 273 274 274 275 277 280 284 288 291 294 297 299 300 302 304 305 307 308 309 310 311 311
227 227 228 226 221 220 222 224 225 225 226 228 230 231 233 234 234 236 237 238 239 239 240 242 242 242 243 244 245 244 245 246 247 248 249 250 252 253 253 252 253 255 257 257 258 259 260 262 263 264 264 264 264 265 265 265 265 267 268 269 270 271 272 273 274 275 276 277 280 283 286 289 291 294 296 298 299 300 301 303 304 306 307 307 307
229 228 228 229 225 222 224 225 225 226 228 230 232 233 235 236 236 236 237 239 241 241 242 243 244 244 245 245 246 247 247 248 249 249 250 250 252 255 256 254 252 254 256 257 258 260 261 262 264 265 265 264 265 267 267 266 266 267 268 269 269 269 271 272 274 275 277 278 281 283 285 288 289 291 294 296 296 297 298 299 300 302 304 303 303
229 227 228 231 229 226 226 227 226 227 229 231 233 235 236 237 237 236 237 239 241 243 244 245 246 246 246 247 248 249 249 250 251 251 251 250 250 253 256 254 253 253 255 257 258 259 260 262 264 265 265 264 264 265 266 265 265 267 268 269 269 270 271 272 274 275 277 279 281 283 284 286 287 289 291 292 293 294 296 296 296 298 299 299 299
229 228 229 231 231 229 230 231 230 229 229 231 235 238 239 238 237 237 239 241 242 243 245 247 248 247 248 248 249 250 252 253 253 251 250 249 250 252 253 253 253 254 255 256 257 258 260 262 264 263 262 261 262 263 265 265 264 266 268 269 270 271 272 273 274 275 277 279 280 282 283 283 285 287 289 291 292 292 293 293 294 295 295 295 295
231 231 231 232 233 232 231 231 232 231 231 233 236 239 240 239 238 238 239 242 243 245 248 249 248 246 247 249 251 252 253 254 253 251 250 249 250 252 253 253 254 255 256 257 258 258 260 262 263 261 260 261 263 264 266 267 265 266 267 268 269 270 272 273 274 275 276 278 280 281 281 282 284 286 287 289 290 290 291 291 292 292 291 291 292
237 237 235 234 235 235 233 232 233 233 234 236 238 240 241 241 239 239 240 242 245 247 249 250 249 248 248 250 253 253 253 255 254 252 250 250 252 254 255 255 255 257 258 259 259 259 259 260 261 261 261 262 264 265 266 267 267 267 268 268 268 269 271 272 273 274 276 277 279 280 280 281 283 285 286 288 289 289 289 289 289 290 289 287 287
240 240 238 237 237 237 236 234 235 236 237 239 240 240 241 242 241 241 242 244 246 248 250 250 250 250 250 252 253 252 252 254 254 252 252 253 255 257 257 256 256 258 259 259 259 258 258 259 259 260 261 262 264 266 267 267 267 267 268 269 270 270 271 272 273 274 276 277 278 279 280 281 282 284 286 287 287 288 288 287 287 287 286 285 285
239 239 240 240 240 240 239 237 238 239 240 240 240 240 240 241 243 244 245 246 247 249 250 251 250 251 251 252 253 252 252 253 254 255 256 257 258 258 258 258 258 259 259 259 258 258 257 257 258 259 260 262 264 266 266 267 267 268 269 270 271 271 272 273 273 274 275 276 277 278 280 281 281 283 284 285 285 285 285 286 286 286 285 285 285
239 241 243 245 246 244 243 242 242 242 241 238 237 237 239 241 244 245 246 247 248 250 252 253 253 253 253 253 253 253 253 254 256 257 258 259 259 259 260 260 260 259 259 258 258 257 257 257 258 259 260 262 264 265 266 266 267 268 270 270 271 272 273 274 274 275 275 276 277 278 280 281 281 282 283 283 282 282 283 284 284 285 285 284 284
244 246 248 250 250 248 245 244 243 243 241 237 235 237 239 241 243 246 247 248 249 251 253 254 255 254 254 254 254 254 255 256 257 258 259 261 261 261 261 261 260 260 260 258 257 257 257 257 258 260 261 262 264 265 266 266 267 268 270 271 272 273 274 275 275 275 276 277 278 278 279 280 281 281 281 282 281 281 282 282 283 283 283 283 282
248 251 252 251 250 249 246 243 242 240 237 234 234 237 237 238 241 245 247 248 249 251 253 255 256 255 255 255 255 256 257 258 258 258 260 262 263 262 262 261 260 260 260 259 258 258 258 258 258 259 261 262 264 266 267 267 268 269 270 271 273 274 275 276 276 276 277 278 278 278 278 279 280 280 280 280 280 281 281 281 281 282 282 281 281
245 249 251 250 250 248 243 237 234 233 231 231 231 233 234 235 238 241 245 247 249 250 253 255 256 256 256 256 256 257 258 260 261 261 261 263 263 263 263 263 262 262 261 260 259 259 258 258 258 259 260 262 264 266 267 268 268 269 270 271 272 274 276 277 277 277 278 278 278 278 278 278 279 279 279 278 278 279 279 280 280 280 280 280 281
240 243 245 244 241 240 235 228 225 225 227 230 230 230 232 234 234 237 241 244 247 249 251 254 257 258 257 258 258 259 260 262 263 264 264 265 264 263 263 264 264 264 263 260 258 257 257 257 259 260 261 262 264 265 267 268 269 270 271 272 273 274 276 277 278 278 278 278 278 278 278 278 279 278 278 277 277 277 278 278 279 278 278 279 280
233 233 234 235 234 234 230 223 219 219 222 227 229 231 235 236 236 239 242 246 249 252 253 255 258 260 261 261 262 263 264 265 266 267 267 267 266 265 265 266 267 268 266 261 256 255 256 256 258 260 261 263 265 267 268 269 270 271 271 272 273 274 275 277 277 277 277 278 278 279 279 279 279 278 278 277 277 277 277 278 278 277 276 277 279
225 226 227 230 232 231 228 223 219 217 216 219 223 228 234 237 238 240 244 246 248 251 254 257 260 263 265 265 265 266 267 267 268 269 269 269 268 268 269 272 273 274 274 267 257 253 254 256 256 259 262 265 267 269 270 271 271 272 273 274 274 275 275 275 276 276 276 277 277 278 278 279 279 279 279 278 277 277 277 277 277 276 276 277 278
219 219 220 222 226 229 232 230 226 223 222 222 223 227 232 234 235 238 242 244 245 247 253 260 266 268 270 270 271 272 273 272 272 271 270 269 269 269 270 273 274 274 278 278 267 255 254 256 257 258 262 266 267 268 270 273 274 275 276 276 276 277 276 276 276 277 276 276 276 276 277 278 278 279 279 278 277 276 276 277 277 277 276 277 278
216 215 215 218 222 228 230 223 214 214 218 219 219 223 228 230 232 236 241 244 247 249 254 261 267 271 273 274 276 278 279 279 278 276 273 272 273 273 271 270 270 268 269 276 277 268 262 263 261 258 261 266 268 270 273 275 277 279 280 279 279 279 279 279 279 279 278 278 278 277 277 277 277 277 277 277 276 276 275 276 277 276 277 277 277
212 214 215 219 221 222 219 211 207 208 211 212 213 216 221 226 231 236 241 245 248 251 255 259 263 269 272 274 277 279 280 282 282 280 277 276 276 276 274 270 269 268 268 271 274 273 272 274 273 268 267 270 273 275 278 280 281 282 284 283 282 281 282 283 282 282 281 281 280 280 279 278 277 275 275 274 274 274 275 275 275 276 276 277 277
207 210 214 218 219 218 215 212 213 214 216 219 220 223 227 230 234 240 245 247 250 253 256 259 261 266 270 273 275 277 278 280 280 280 280 278 276 277 278 276 275 274 273 273 273 272 272 276 277 277 276 278 278 279 282 285 286 287 288 287 285 285 285 285 284 284 285 285 285 283 281 279 277 275 274 273 273 274 275 276 276 276 276 277 277
205 210 215 218 216 215 215 215 217 220 223 228 231 235 240 242 244 248 252 254 256 258 260 262 264 267 270 272 273 275 276 277 278 279 280 280 279 277 275 275 276 276 274 273 272 271 271 274 276 276 277 279 279 280 282 285 288 290 290 289 288 288 288 288 288 289 290 290 289 286 284 281 279 277 277 276 276 276 277 277 277 276 276 276 276
213 216 220 220 218 217 218 221 223 226 230 234 237 242 247 250 252 256 260 262 264 265 267 269 271 273 274 275 274 275 276 278 280 281 283 283 284 282 278 275 276 276 274 273 271 270 270 272 274 275 275 276 278 280 282 285 286 288 289 289 289 290 290 291 291 291 292 292 291 289 286 284 283 281 280 279 278 278 278 278 278 278 277 276 276
218 221 222 223 224 227 232 236 238 241 244 247 248 250 253 256 257 260 265 268 270 271 272 274 276 277 278 278 278 278 280 282 283 285 287 287 286 284 283 282 281 280 279 277 274 272 272 272 273 274 275 277 279 281 283 284 286 288 290 289 289 289 290 290 290 291 290 290 289 288 287 286 286 285 283 281 280 280 279 280 280 280 280 279 278
222 225 228 231 234 238 241 243 245 247 249 252 254 256 258 261 263 265 268 271 273 275 277 278 279 280 280 280 281 281 284 287 288 288 288 289 288 287 286 286 285 284 284 283 281 280 279 279 279 278 278 279 280 282 284 286 287 289 289 289 289 289 289 289 290 290 289 288 287 286 286 285 285 284 283 282 281 281 280 280 281 281 282 282 282
226 229 233 237 240 241 242 245 247 248 250 252 254 256 258 260 262 263 265 269 273 275 278 281 283 284 283 282 282 282 284 287 290 290 289 290 290 291 291 290 289 289 288 287 286 285 286 287 287 286 285 283 283 284 285 287 289 290 290 289 290 289 289 290 290 289 288 288 287 286 285 284 283 283 282 281 281 280 281 282 282 283 284 284 284
228 231 235 237 237 239 241 244 247 248 250 251 252 253 255 256 259 260 261 264 268 272 276 279 282 284 284 282 281 281 283 287 289 290 292 293 294 296 296 296 297 296 294 292 289 288 289 289 290 290 290 289 289 288 287 288 290 291 290 290 290 290 290 291 290 289 288 288 287 286 285 285 284 284 284 283 283 283 283 284 284 285 285 285 285
235 236 238 238 239 240 242 243 245 246 248 250 250 251 251 253 256 258 259 260 263 267 272 276 280 283 283 282 281 281 284 288 290 290 293 296 298 301 302 302 302 301 299 296 293 292 291 291 291 291 291 291 291 291 290 290 291 291 290 290 290 290 291 291 290 289 288 288 288 287 286 286 286 286 286 285 284 283 284 285 286 286 286 285 285
238 239 240 241 241 242 242 243 245 245 245 245 247 249 250 253 256 258 259 261 262 264 268 272 276 279 281 280 281 282 285 288 290 289 291 295 299 303 305 306 306 305 302 300 298 295 293 293 292 292 292 291 290 290 291 292 292 291 290 290 291 291 291 291 290 289 289 289 289 288 287 286 286 285 285 284 283 283 284 285 286 287 286 286 285
237 236 237 238 239 239 241 244 247 248 246 244 245 247 251 254 257 257 258 259 260 261 264 267 270 275 278 280 282 285 286 289 291 290 289 293 299 303 305 306 308 308 308 306 303 300 298 297 296 295 294 293 292 292 292 292 292 292 291 291 291 291 291 290 290 289 289 289 288 288 286 285 284 283 284 284 283 284 285 286 286 287 287 286 285
237 235 235 237 238 240 243 247 251 252 250 248 248 250 252 256 259 258 257 257 258 258 260 264 268 271 274 277 282 285 287 288 290 290 289 291 296 300 303 305 307 308 308 308 306 303 301 300 299 298 297 296 295 294 293 292 292 292 292 292 292 291 291 290 290 289 289 288 287 286 284 284 283 283 283 283 284 284 284 285 285 286 286 285 284
239 236 236 239 243 246 249 252 253 252 251 251 252 253 255 258 261 262 261 260 258 257 258 262 267 272 274 277 280 284 285 287 288 288 289 290 293 297 300 302 303 304 304 305 305 303 301 299 298 297 297 296 295 294 293 292 292 291 291 291 291 291 290 290 290 289 289 288 287 285 284 283 283 283 283 283 284 283 283 283 283 283 283 283 282
240 238 239 243 248 251 253 253 252 250 251 254 256 257 259 261 263 266 266 263 261 260 260 263 268 273 276 278 281 283 284 286 287 287 288 290 292 294 296 298 299 299 300 300 301 302 301 299 298 297 296 296 295 294 293 292 291 290 290 289 289 289 289 289 289 288 288 287 286 286 284 283 283 283 283 283 284 283 282 282 282 281 281 281 280
246 245 247 250 254 256 256 255 252 251 253 257 260 261 261 262 265 268 269 268 267 266 265 267 270 274 276 279 281 283 283 284 285 285 287 289 291 293 295 296 297 297 297 298 299 301 301 301 300 300 299 298 298 297 295 294 292 291 290 289 289 289 289 288 288 287 286 286 285 285 284 284 283 283 283 283 283 283 282 282 281 280 280 279 278
250 250 252 255 256 256 256 256 254 253 255 259 262 263 262 262 265 268 270 270 271 271 270 270 272 275 278 281 283 284 283 282 282 283 285 287 290 293 295 297 298 298 297 297 298 300 300 300 300 300 300 300 299 299 298 296 295 293 292 292 292 291 291 290 289 288 287 286 285 284 284 283 283 283 282 282 282 282 282 281 280 280 279 278 276
250 250 251 253 254 254 254 255 256 255 255 257 259 260 260 262 265 267 269 270 271 272 272 272 273 275 279 282 285 286 285 282 280 280 283 285 288 291 293 295 297 298 298 298 298 299 299 299 299 299 299 299 299 299 298 297 296 295 294 294 293 293 292 291 290 289 287 286 285 284 284 283 283 283 283 282 282 282 282 281 280 279 278 277 276
252 250 251 253 255 255 254 257 261 260 259 259 260 261 262 265 266 268 271 272 272 273 274 274 275 278 281 284 285 287 286 284 281 280 282 284 286 289 291 293 294 295 296 296 298 298 298 299 299 300 300 299 299 298 298 297 296 295 295 294 294 293 292 291 290 289 287 286 285 284 284 283 283 283 283 282 282 281 281 280 279 278 278 277 275
257 254 253 253 255 256 258 262 265 265 263 263 263 265 267 268 269 271 273 275 275 277 277 277 278 280 283 285 287 288 288 286 282 281 282 284 286 288 290 292 293 294 294 295 296 297 298 299 300 301 301 300 299 298 298 297 297 296 296 295 294 294 293 292 290 289 288 286 285 284 283 283 283 282 282 282 282 281 280 280 279 278 277 276 275
261 257 255 255 257 260 263 265 266 265 264 265 266 268 270 270 272 274 275 276 278 280 279 279 280 282 284 286 288 288 289 287 284 281 281 283 285 288 290 292 293 294 295 295 295 296 297 298 300 301 301 301 301 300 299 298 298 297 296 296 295 294 293 292 291 290 288 287 286 284 283 282 281 281 281 281 281 280 280 279 278 277 277 277 276
261 258 256 258 262 265 266 267 266 266 266 267 268 271 272 274 276 279 280 281 282 283 281 281 281 283 285 287 289 289 290 288 285 282 282 283 286 288 289 291 292 294 295 296 296 296 298 299 300 301 302 302 302 302 301 300 299 298 297 296 295 295 294 293 291 290 288 287 286 284 282 281 281 280 280 279 279 278 278 278 277 276 276 276 276
259 259 259 262 266 267 266 266 266 267 268 269 271 273 275 276 278 280 282 283 284 284 284 284 283 284 286 288 289 290 290 289 286 284 284 285 286 288 289 291 293 294 295 295 296 298 299 301 301 302 302 303 303 302 302 301 300 299 298 297 296 295 294 293 292 291 289 287 286 284 283 282 281 280 279 278 277 277 277 277 276 276 275 275 275
260 262 263 265 267 267 266 266 267 268 270 272 274 276 278 279 279 280 282 283 284 285 285 285 285 286 287 289 290 290 290 289 287 286 286 286 287 288 290 291 293 294 295 296 297 299 301 302 302 302 303 303 303 303 302 301 300 299 298 297 297 297 296 295 294 293 291 289 288 286 285 283 282 281 281 280 279 278 278 278 277 277 276 276 276
265 267 266 266 267 266 266 268 269 271 273 274 276 277 279 281 281 282 283 285 286 287 287 287 286 286 288 289 289 290 289 289 288 288 287 287 288 289 291 292 293 294 296 297 299 300 302 302 302 302 302 303 303 302 301 300 299 299 299 299 299 299 299 298 296 295 293 292 290 288 287 286 285 284 283 283 282 280 279 279 279 279 278 278 278
270 270 268 267 268 267 268 269 271 272 274 275 277 279 281 283 284 285 286 287 288 288 288 288 287 288 288 289 290 290 290 289 289 289 288 289 289 290 291 292 293 295 296 298 299 300 301 301 301 302 302 302 302 301 300 299 299 299 300 300 300 300 300 298 296 295 294 292 291 289 288 288 287 286 285 285 285 283 281 280 280 281 280 279 279
271 270 269 268 269 269 269 271 272 274 275 276 278 281 282 284 285 286 286 287 288 288 288 288 288 289 289 289 290 291 291 290 289 288 288 289 290 291 292 293 294 296 297 298 299 300 300 301 301 301 301 301 300 299 299 299 299 299 300 300 300 300 300 298 296 295 294 292 291 290 290 289 288 287 286 286 286 285 283 282 282 283 282 280 279
271 271 271 270 270 271 272 273 274 276 277 278 280 282 283 284 285 285 286 287 288 289 290 290 290 290 290 290 291 292 291 290 289 288 289 290 290 292 293 294 296 297 298 299 299 300 300 300 301 301 301 300 299 299 298 298 299 299 300 300 300 301 301 299 297 296 294 293 291 291 291 290 289 288 288 287 287 286 285 283 283 282 281 280 280
272 272 272 272 272 274 275 275 277 278 279 280 281 282 283 284 285 285 286 287 288 289 290 291 291 291 291 292 292 292 292 291 289 289 290 291 292 293 295 296 297 298 299 299 300 300 300 301 301 301 300 299 299 298 298 298 298 299 299 300 300 301 301 300 298 297 294 292 291 291 291 291 290 289 288 287 287 286 286 284 284 283 282 280 280